Wetbulb
48.97 49.09 48.59 48.81 48.85 49.30 48.69 48.31 48.29 48.37 48.12 48.55 50.47 51.30 51.37 52.22 54.69 56.83 55.92 59.81 60.84 59.73 59.96 60.41 60.70 60.66 60.69 60.70 60.58 60.13 59.85 60.23 60.25 61.38 62.37 62.58 63.02 62.86 62.53 62.55 62.57 62.63 63.03
49.28 49.91 49.37 49.27 49.43 49.41 49.55 48.84 48.56 48.49 47.89 48.02 48.45 50.33 51.82 52.21 53.15 55.45 54.66 55.19 60.06 59.59 59.44 60.38 60.58 59.82 59.82 59.92 60.05 59.85 59.42 59.41 59.44 60.50 61.18 61.60 62.10 62.29 62.30 62.33 62.07 61.86 61.97
49.75 50.03 49.49 49.32 49.69 50.39 50.65 49.89 49.44 49.24 48.46 49.34 47.55 47.60 51.51 52.07 52.15 52.02 53.91 53.74 55.85 58.94 58.77 59.25 59.43 59.08 59.26 59.21 59.48 59.48 59.28 58.62 58.70 59.12 60.23 60.41 60.91 61.54 61.79 61.71 61.48 61.40 61.37
50.66 50.38 50.33 49.91 50.64 50.84 50.04 49.24 48.62 48.23 47.75 47.29 46.61 46.84 47.93 51.88 52.17 51.94 52.39 52.40 53.67 54.26 57.51 58.40 57.97 57.50 57.51 58.21 58.94 58.91 58.66 58.49 58.03 58.00 59.52 59.35 59.92 60.49 60.74 61.02 60.75 60.28 60.21
52.73 51.71 50.36 50.10 50.79 50.45 49.62 49.14 48.16 47.61 46.79 46.92 48.09 48.00 47.70 49.87 51.37 53.54 50.43 50.08 53.06 53.38 52.17 56.00 57.15 56.73 56.62 56.92 58.04 58.66 58.16 57.84 57.56 57.64 58.26 58.19 58.55 59.55 60.32 60.24 59.80 59.74 59.60
52.40 51.94 50.63 50.55 50.52 49.59 48.83 48.20 47.50 47.36 47.15 46.62 49.11 47.99 46.58 48.32 50.32 50.04 49.95 50.31 50.90 52.14 51.54 51.30 50.34 50.24 55.87 56.66 56.71 57.45 57.44 57.22 57.13 57.27 57.81 57.65 57.80 58.13 59.38 59.98 59.31 59.08 59.01
53.01 50.78 50.25 50.17 49.63 48.63 47.68 48.32 47.60 46.60 45.93 46.54 45.39 45.26 45.78 47.85 47.05 46.88 48.46 47.97 48.75 50.18 50.63 50.25 49.25 49.10 49.75 54.85 55.99 56.24 56.13 56.76 56.41 56.96 56.97 57.08 57.06 57.00 57.76 58.60 58.78 57.98 58.18
51.58 50.67 49.29 49.03 48.66 48.12 47.44 46.41 46.45 45.74 45.86 45.88 43.97 42.78 40.42 42.96 45.34 46.27 46.26 47.73 46.59 47.42 48.65 49.28 48.61 49.22 48.73 48.73 50.15 55.63 55.55 56.13 56.83 57.03 57.10 57.07 56.89 57.07 57.25 57.63 57.66 57.35 57.20
50.86 49.54 48.74 47.90 47.26 47.36 45.83 44.93 45.43 45.46 44.01 45.11 45.48 43.65 39.25 38.23 42.02 44.66 45.25 46.12 46.48 46.06 46.26 47.32 48.67 49.31 49.17 48.25 50.40 51.18 54.29 55.19 56.21 57.24 57.58 57.12 57.04 57.45 57.69 57.61 57.90 57.50 56.45
49.99 50.24 49.02 47.23 46.24 47.08 45.44 45.36 46.48 44.89 44.25 42.78 44.60 46.91 44.41 44.08 41.23 40.35 44.31 45.55 45.24 46.25 46.05 45.96 47.35 47.46 48.20 48.32 50.65 52.27 54.51 55.16 56.32 57.45 57.86 57.55 57.33 57.72 58.10 58.44 58.09 57.64 56.56
49.01 48.77 48.16 46.79 46.69 45.77 44.63 44.41 44.05 44.07 44.27 43.03 42.94 43.32 42.99 43.18 42.82 41.56 39.23 40.78 44.21 44.84 45.85 45.93 45.80 45.69 47.16 48.18 48.42 50.35 53.93 54.75 55.93 56.63 57.43 57.89 58.07 58.03 58.03 58.27 58.33 58.16 57.06
46.49 47.04 47.39 46.18 45.91 45.07 44.43 44.02 43.67 43.58 43.19 42.85 43.10 42.94 42.35 41.19 40.72 40.33 39.02 39.61 40.67 43.01 44.37 45.15 45.13 44.99 45.95 47.14 49.76 51.58 53.31 54.73 55.55 55.82 56.78 57.23 57.36 58.06 58.10 57.67 56.60 56.65 57.25
44.14 43.65 44.70 44.10 43.88 44.05 44.20 43.98 43.19 43.01 42.43 42.19 42.32 42.13 42.85 42.52 42.88 41.85 40.58 39.49 39.08 41.35 42.58 44.02 44.28 44.73 46.47 45.68 46.41 49.36 50.23 52.10 52.78 54.32 55.82 56.26 56.15 56.44 56.52 56.74 56.41 55.89 55.73
43.75 44.30 43.68 43.62 43.73 44.04 43.42 42.96 43.06 42.88 42.01 41.07 40.15 40.53 41.65 41.85 42.23 41.79 40.80 39.22 37.46 37.91 39.57 40.46 43.32 43.70 43.82 44.70 47.13 49.55 45.51 50.07 51.52 52.18 53.08 53.84 53.43 53.13 53.52 54.12 54.63 54.58 54.18
44.45 43.26 42.91 42.59 42.33 42.27 41.99 41.60 40.80 40.50 39.93 39.70 39.61 39.52 39.23 40.31 40.81 40.60 40.64 40.19 38.19 35.39 36.12 38.84 39.90 43.22 44.14 44.00 45.21 44.74 44.14 47.55 50.15 50.34 51.30 52.56 51.09 51.04 51.74 53.27 53.48 53.49 53.28
42.42 42.32 41.97 41.71 41.32 40.74 40.52 39.76 38.98 39.48 38.75 38.56 39.58 38.11 38.09 38.84 38.66 38.90 39.13 39.48 39.17 37.64 35.06 38.23 39.52 41.11 42.58 43.97 45.19 43.30 42.64 46.54 47.30 49.06 48.92 49.69 50.11 50.01 49.70 50.77 52.13 52.39 52.29
41.76 41.60 41.21 40.47 39.84 39.08 38.66 37.68 37.22 37.95 37.06 36.63 36.48 36.90 37.03 37.44 36.89 36.93 37.46 37.93 37.89 37.84 36.03 37.99 39.07 39.92 39.24 39.42 41.33 41.59 41.78 41.00 41.17 45.39 46.34 47.03 48.58 49.23 49.31 50.18 51.33 51.23 50.91
41.23 40.35 39.68 38.71 38.48 38.09 37.26 36.26 35.97 35.98 34.65 34.25 34.92 34.96 35.29 38.20 35.53 35.80 35.64 35.71 36.40 36.86 36.17 33.73 35.55 36.56 37.80 39.57 38.93 39.79 41.20 41.67 40.53 43.40 45.72 46.76 47.37 48.72 48.29 48.62 49.46 50.19 49.94
38.59 38.50 38.17 37.25 37.05 36.99 35.86 35.48 35.27 34.55 33.76 33.39 33.46 33.37 33.81 34.18 33.80 34.27 34.26 34.02 35.19 36.34 34.63 34.47 34.95 37.16 37.06 38.04 37.95 37.28 37.72 38.15 40.64 43.41 44.93 44.98 46.07 46.70 46.73 46.68 47.52 48.65 49.07
37.26 36.63 36.01 35.55 35.48 34.80 34.74 34.67 34.28 33.24 32.75 33.44 34.09 33.77 33.38 33.32 33.03 33.03 33.71 32.67 33.38 32.37 33.81 34.86 35.24 36.25 35.25 37.07 35.48 34.93 36.13 38.36 38.29 40.69 41.96 43.73 44.61 45.36 45.90 46.32 46.01 45.10 45.60
35.32 34.69 34.12 33.47 33.02 33.28 34.92 33.38 33.48 32.90 32.47 32.36 33.17 33.81 33.86 34.93 38.59 38.70 37.15 33.64 32.61 33.36 33.65 33.72 34.18 34.33 33.83 33.99 33.65 35.81 35.86 36.67 36.59 37.41 38.65 38.36 38.42 39.42 40.28 42.83 43.12 43.64 44.58
32.66 32.18 31.69 31.68 31.64 33.84 38.63 41.08 39.79 33.88 33.43 33.01 31.89 32.71 33.08 35.53 35.11 38.68 40.00 41.15 39.80 34.31 32.36 32.00 32.12 32.18 32.95 33.95 35.51 35.13 34.57 33.20 30.76 34.89 33.65 35.25 36.44 38.01 39.19 39.93 42.46 43.37 44.03
30.49 30.51 30.60 31.07 31.01 31.54 37.93 39.69 40.98 35.55 32.74 31.71 31.12 31.06 31.70 33.96 35.21 32.52 35.18 37.72 38.01 38.96 38.78 34.01 31.65 32.27 32.75 34.36 34.65 33.80 33.02 32.33 32.56 35.17 34.99 33.66 34.60 35.92 38.82 39.39 41.72 42.32 42.79
30.90 31.08 31.11 31.40 30.79 32.93 38.82 39.96 40.62 35.34 32.94 31.88 31.34 30.99 29.74 30.31 31.48 32.36 31.58 30.73 31.26 33.13 34.62 35.13 33.43 33.99 34.32 34.95 34.60 35.47 34.76 35.16 32.47 33.40 35.00 30.31 32.66 34.54 37.52 37.11 40.16 41.67 41.98
30.55 30.47 31.30 31.02 30.16 30.86 36.64 38.76 38.52 33.55 31.89 30.38 30.63 29.80 29.48 29.71 33.44 37.20 33.78 31.19 31.03 32.54 37.25 38.90 38.70 39.07 39.46 39.44 38.35 35.24 31.39 27.50 30.11 28.84 32.63 32.64 31.03 31.39 32.81 34.49 37.64 40.30 41.08
30.78 30.57 30.39 29.84 31.95 31.25 35.75 37.97 37.74 33.48 29.56 30.83 28.87 29.53 34.73 34.12 36.69 37.00 32.68 29.51 29.09 30.62 31.65 32.52 33.07 33.98 35.62 34.29 37.88 34.23 31.66 31.41 31.86 30.94 31.71 32.37 32.24 31.90 29.93 34.43 34.77 37.06 36.79
MSLP
1020.07 1020.07 1020.30 1020.32 1020.24 1020.02 1020.05 1020.01 1019.88 1019.75 1019.57 1019.41 1019.29 1019.14 1019.17 1019.22 1019.32 1019.36 1019.46 1019.29 1019.19 1019.12 1019.05 1019.00 1018.95 1018.79 1018.65 1018.47 1018.25 1018.07 1017.87 1017.65 1017.47 1017.37 1017.10 1016.85 1016.67 1016.42 1016.25 1016.01 1015.89 1015.66 1015.39
1020.06 1020.24 1020.41 1020.60 1020.48 1020.32 1020.26 1020.21 1020.21 1020.16 1020.05 1019.79 1019.66 1019.50 1019.36 1019.36 1019.47 1019.50 1019.49 1019.54 1019.45 1019.41 1019.34 1019.22 1019.09 1019.01 1018.84 1018.65 1018.47 1018.17 1018.05 1017.84 1017.69 1017.50 1017.24 1016.95 1016.79 1016.53 1016.30 1016.19 1016.06 1015.89 1015.63
1020.08 1020.27 1020.45 1020.73 1020.75 1020.59 1020.40 1020.39 1020.37 1020.31 1020.30 1020.01 1020.06 1019.78 1019.48 1019.46 1019.61 1019.62 1019.55 1019.64 1019.54 1019.50 1019.47 1019.39 1019.27 1019.11 1018.99 1018.80 1018.57 1018.35 1018.14 1018.05 1017.78 1017.63 1017.38 1017.14 1016.87 1016.58 1016.39 1016.29 1016.12 1016.02 1015.83
1020.13 1020.41 1020.47 1020.74 1020.77 1020.86 1020.72 1020.71 1020.79 1020.79 1020.70 1020.55 1020.38 1020.17 1019.89 1019.50 1019.55 1019.56 1019.64 1019.76 1019.74 1019.66 1019.57 1019.47 1019.38 1019.21 1019.07 1018.94 1018.66 1018.32 1018.21 1018.03 1017.95 1017.64 1017.37 1017.21 1016.93 1016.61 1016.39 1016.25 1016.08 1015.90 1015.74
1020.17 1020.35 1020.71 1020.80 1020.91 1021.11 1021.01 1021.04 1021.04 1021.05 1021.07 1020.79 1020.42 1020.23 1020.09 1019.83 1019.60 1019.53 1019.63 1019.67 1019.70 1019.66 1019.64 1019.48 1019.28 1019.19 1019.04 1018.86 1018.71 1018.37 1018.02 1018.04 1017.94 1017.69 1017.33 1017.09 1016.82 1016.47 1016.26 1016.13 1015.95 1015.84 1015.62
1020.14 1020.54 1020.77 1020.94 1021.03 1021.40 1021.56 1021.34 1021.27 1021.19 1021.20 1021.03 1020.59 1020.36 1020.12 1019.94 1019.69 1019.76 1019.83 1019.69 1019.63 1019.49 1019.36 1019.38 1019.35 1019.28 1019.04 1018.78 1018.52 1018.30 1018.08 1017.91 1017.90 1017.75 1017.42 1017.12 1016.90 1016.47 1016.18 1015.96 1015.86 1015.80 1015.53
1020.01 1020.53 1020.97 1021.24 1021.44 1021.57 1021.87 1021.78 1021.57 1021.52 1021.43 1021.17 1020.97 1020.66 1020.48 1020.32 1020.15 1020.12 1019.96 1019.91 1019.79 1019.65 1019.51 1019.27 1019.25 1019.18 1019.11 1018.82 1018.63 1018.34 1018.12 1017.85 1017.64 1017.64 1017.35 1017.00 1016.89 1016.62 1016.10 1015.76 1015.67 1015.56 1015.40
1020.14 1020.46 1021.07 1021.40 1021.67 1021.88 1022.04 1022.03 1022.05 1022.04 1022.00 1021.65 1021.86 1022.00 1021.67 1021.05 1020.71 1020.46 1020.33 1020.34 1020.26 1019.95 1019.80 1019.57 1019.33 1019.10 1018.97 1018.92 1018.66 1018.40 1018.16 1017.94 1017.74 1017.62 1017.42 1017.13 1016.84 1016.50 1016.19 1015.79 1015.43 1015.32 1015.23
1020.62 1020.49 1021.14 1021.61 1021.78 1021.92 1022.40 1022.33 1022.21 1022.18 1022.48 1022.18 1021.85 1022.00 1022.31 1022.27 1021.79 1020.85 1020.49 1020.37 1020.46 1020.39 1020.22 1019.83 1019.41 1019.22 1018.91 1018.71 1018.50 1018.25 1018.00 1017.83 1017.66 1017.53 1017.23 1016.95 1016.69 1016.33 1015.96 1015.68 1015.33 1015.13 1015.18
1020.93 1021.13 1021.39 1021.73 1022.04 1022.03 1022.31 1022.47 1022.25 1022.29 1022.60 1022.81 1022.38 1022.12 1022.25 1022.38 1022.51 1022.15 1021.00 1020.58 1020.66 1020.63 1020.48 1020.08 1019.52 1019.19 1018.87 1018.61 1018.34 1018.21 1018.05 1017.88 1017.62 1017.33 1016.95 1016.55 1016.30 1016.05 1015.63 1015.42 1015.20 1014.96 1014.91
1020.81 1021.32 1021.59 1022.04 1022.24 1022.31 1022.45 1022.57 1022.56 1022.44 1022.63 1022.82 1022.92 1022.85 1022.59 1022.45 1022.62 1022.82 1022.27 1021.42 1020.96 1020.71 1020.48 1020.25 1019.89 1019.42 1018.88 1018.44 1018.31 1018.05 1017.83 1017.65 1017.42 1017.18 1016.82 1016.40 1016.10 1015.79 1015.45 1015.41 1015.18 1014.98 1014.74
1021.25 1021.64 1021.88 1022.29 1022.49 1022.54 1022.72 1022.52 1022.49 1022.62 1022.80 1022.85 1022.94 1023.12 1023.00 1023.01 1022.90 1023.00 1022.76 1022.17 1021.62 1020.66 1020.48 1020.17 1019.93 1019.70 1019.24 1018.68 1018.40 1018.37 1018.10 1017.76 1017.38 1017.02 1016.62 1016.17 1015.80 1015.68 1015.46 1015.33 1015.03 1014.74 1014.57
1021.93 1022.11 1021.98 1022.29 1022.73 1022.82 1022.81 1022.56 1022.66 1022.67 1022.80 1023.02 1023.06 1023.11 1023.01 1022.95 1022.63 1022.58 1022.55 1022.10 1021.74 1021.14 1020.58 1020.04 1019.91 1019.61 1019.16 1018.86 1018.46 1018.23 1017.91 1017.50 1017.27 1016.90 1016.43 1015.88 1015.62 1015.50 1015.28 1015.01 1014.81 1014.62 1014.35
1021.77 1021.93 1022.20 1022.41 1022.71 1022.93 1022.74 1022.76 1022.97 1022.93 1022.83 1022.99 1023.03 1023.11 1022.99 1022.79 1022.58 1022.45 1022.45 1022.29 1021.50 1021.17 1020.78 1020.36 1019.79 1019.43 1019.12 1018.82 1018.33 1018.00 1017.85 1017.48 1017.10 1016.54 1016.10 1015.81 1015.54 1015.31 1015.03 1014.78 1014.53 1014.33 1014.04
1021.62 1022.08 1022.46 1022.68 1022.87 1023.04 1022.82 1023.06 1023.17 1023.19 1023.16 1023.17 1023.17 1022.98 1022.96 1022.71 1022.52 1022.26 1022.19 1022.13 1021.93 1021.25 1020.66 1020.12 1019.96 1019.38 1018.89 1018.61 1018.16 1017.75 1017.59 1017.36 1016.88 1016.47 1016.07 1015.60 1015.42 1015.12 1014.73 1014.26 1014.01 1013.87 1013.72
1021.81 1022.26 1022.56 1022.89 1023.25 1023.20 1023.28 1023.25 1023.28 1023.35 1023.29 1023.21 1023.21 1023.09 1022.90 1022.64 1022.45 1022.21 1022.03 1021.88 1021.76 1021.61 1020.62 1020.20 1019.86 1019.50 1019.07 1018.34 1017.74 1017.45 1017.38 1017.18 1016.91 1016.41 1016.00 1015.60 1015.15 1014.69 1014.35 1013.93 1013.47 1013.16 1013.16
1021.99 1022.39 1022.75 1023.09 1023.35 1023.33 1023.41 1023.44 1023.39 1023.33 1023.37 1023.26 1023.24 1023.07 1022.85 1022.54 1022.31 1022.11 1021.97 1021.88 1021.70 1021.33 1020.70 1019.98 1019.88 1019.46 1018.95 1018.44 1017.98 1017.48 1017.14 1016.97 1016.71 1016.31 1015.82 1015.29 1014.83 1014.39 1013.97 1013.52 1013.05 1012.71 1012.50
1022.17 1022.50 1022.96 1023.26 1023.29 1023.29 1023.35 1023.55 1023.46 1023.35 1023.44 1023.42 1023.23 1023.11 1022.84 1022.41 1022.20 1021.90 1021.81 1021.70 1021.37 1021.09 1020.82 1020.00 1019.86 1019.36 1018.84 1018.24 1017.84 1017.56 1017.04 1016.69 1016.35 1015.82 1015.25 1014.80 1014.37 1013.89 1013.54 1013.10 1012.66 1012.24 1012.02
1022.55 1022.87 1023.18 1023.28 1023.31 1023.18 1023.26 1023.36 1023.35 1023.35 1023.36 1023.27 1023.14 1022.90 1022.68 1022.23 1021.98 1021.76 1021.65 1021.14 1021.16 1020.63 1020.45 1020.05 1019.50 1019.14 1018.66 1018.22 1017.76 1017.23 1016.73 1016.38 1016.02 1015.38 1014.86 1014.42 1013.91 1013.38 1013.02 1012.70 1012.27 1011.77 1011.33
1022.71 1022.99 1023.16 1023.25 1023.25 1023.01 1023.07 1023.04 1023.13 1023.11 1023.12 1022.99 1022.90 1022.52 1022.20 1022.15 1021.86 1021.24 1021.26 1020.78 1020.40 1020.36 1020.08 1019.72 1019.23 1018.95 1018.71 1018.09 1017.69 1017.22 1016.60 1016.28 1015.92 1015.15 1014.64 1014.08 1013.61 1013.21 1012.84 1012.28 1011.76 1011.40 1011.00
1022.70 1022.94 1023.17 1023.13 1023.10 1022.97 1022.41 1022.87 1022.72 1022.76 1022.61 1022.41 1022.51 1022.27 1021.78 1021.44 1021.24 1020.80 1020.45 1020.21 1020.00 1019.82 1019.59 1019.36 1019.06 1018.55 1018.20 1017.77 1017.46 1016.77 1016.19 1015.73 1015.55 1015.06 1014.34 1013.91 1013.56 1013.09 1012.68 1012.16 1011.51 1011.04 1010.57
1022.70 1022.97 1023.00 1022.93 1022.81 1022.57 1022.63 1022.24 1022.06 1022.10 1022.15 1022.13 1022.05 1021.75 1021.15 1020.91 1020.47 1020.08 1019.77 1019.53 1019.36 1019.22 1019.16 1019.06 1018.84 1018.45 1017.80 1017.46 1017.01 1016.51 1015.92 1015.71 1015.08 1014.45 1014.27 1013.55 1013.29 1012.54 1012.11 1011.67 1011.04 1010.65 1010.10
1022.65 1022.69 1022.74 1022.82 1022.76 1022.54 1022.17 1021.83 1021.47 1021.56 1021.47 1021.43 1021.25 1021.01 1020.71 1020.37 1020.06 1019.73 1019.34 1019.04 1018.84 1018.62 1018.39 1018.34 1018.23 1017.93 1017.33 1016.90 1016.56 1016.09 1015.71 1015.46 1014.87 1014.19 1014.16 1013.25 1012.96 1012.21 1011.71 1011.13 1010.49 1009.96 1009.46
1022.55 1022.70 1022.79 1022.74 1022.52 1022.02 1021.50 1021.28 1021.03 1020.87 1020.70 1020.55 1020.39 1020.22 1020.11 1019.87 1019.54 1019.33 1019.01 1018.68 1018.31 1018.03 1017.86 1017.65 1017.52 1017.11 1016.69 1016.25 1016.13 1015.63 1015.11 1014.71 1014.37 1013.81 1013.55 1012.99 1012.33 1011.66 1011.19 1010.78 1010.01 1009.36 1008.83
1022.61 1022.65 1022.58 1022.36 1022.10 1021.63 1021.04 1020.73 1020.39 1020.17 1020.02 1019.83 1019.65 1019.55 1019.46 1019.31 1019.00 1018.76 1018.38 1018.18 1017.91 1017.54 1017.23 1016.95 1016.72 1016.32 1015.90 1015.58 1015.24 1014.90 1014.77 1014.69 1014.07 1013.45 1013.05 1012.85 1012.07 1011.48 1010.98 1010.19 1009.38 1008.85 1008.41
1022.38 1022.30 1022.18 1021.85 1021.42 1020.93 1020.53 1020.33 1020.02 1019.68 1019.78 1019.47 1019.29 1019.02 1018.89 1018.71 1018.38 1018.08 1017.84 1017.73 1017.47 1017.18 1016.97 1016.60 1016.27 1015.79 1015.53 1015.35 1014.84 1014.64 1014.43 1014.35 1013.94 1013.25 1012.86 1012.85 1012.15 1012.08 1010.68 1009.68 1009.16 1008.62 1008.18
Wind_Speed
4 3 4 4 4 4 4 5 5 5 6 6 5 5 5 5 5 3 1 6 7 8 9 10 12 11 12 13 13 13 13 12 11 12 12 13 13 11 11 11 12 13 13
4 4 4 4 4 4 4 4 4 5 4 5 6 6 4 5 4 3 2 2 5 6 7 9 12 11 11 12 13 12 12 12 12 12 12 11 12 12 11 10 11 12 13
5 4 4 4 3 3 5 5 5 5 5 5 6 5 3 4 4 3 3 2 2 2 3 5 10 12 11 11 12 13 12 11 12 11 12 11 11 11 10 9 9 12 14
6 5 4 3 3 4 3 4 4 4 4 4 4 4 4 3 3 3 4 2 1 1 1 3 6 10 11 11 12 12 12 10 11 11 11 11 11 11 10 9 9 12 13
5 5 4 3 5 3 4 3 3 3 3 4 4 3 3 1 1 2 2 4 2 2 1 3 6 7 7 9 11 13 11 9 10 11 10 10 11 11 11 10 10 11 11
6 5 4 5 4 4 4 3 4 3 2 3 3 3 3 1 1 2 2 2 1 1 1 3 3 4 9 9 10 14 13 9 10 10 9 10 12 12 12 8 10 11 10
6 6 4 4 4 4 3 4 2 4 4 5 4 4 4 4 3 4 2 1 4 3 3 3 2 2 4 9 10 10 11 12 9 9 10 10 10 11 12 10 8 12 11
6 7 5 4 5 4 5 4 5 3 3 4 2 1 4 5 5 4 2 3 5 4 5 6 6 5 4 3 5 8 9 11 10 10 11 11 11 11 12 13 12 12 13
5 7 7 4 5 4 3 2 2 4 2 3 5 3 2 2 3 3 2 3 6 4 4 5 6 6 6 4 5 5 7 7 9 11 13 12 13 13 12 12 14 11 11
5 6 6 5 4 3 5 2 3 2 2 3 3 3 0 2 1 5 3 5 4 6 6 5 7 5 6 5 6 6 8 8 11 13 14 14 13 15 15 16 15 14 13
6 6 6 5 4 4 3 3 4 4 2 1 2 2 2 2 1 2 5 5 4 2 4 4 5 5 7 5 5 5 9 9 12 14 17 18 17 17 18 17 18 18 16
4 5 6 5 4 4 2 2 3 4 3 3 2 2 1 1 2 2 3 4 6 5 2 4 5 4 7 6 5 11 12 12 13 15 17 18 19 19 19 19 20 20 20
2 3 4 4 3 2 3 4 4 3 3 2 3 2 1 2 1 2 2 4 3 3 4 3 4 4 4 4 5 10 12 18 17 17 20 21 20 20 21 21 22 22 22
4 4 5 5 4 3 3 4 3 3 4 3 5 4 3 3 2 1 2 3 8 2 2 5 3 4 4 5 8 11 6 13 16 21 21 20 20 20 21 22 22 22 22
4 6 5 5 4 4 5 4 3 4 4 3 4 4 2 3 3 3 3 2 3 7 8 4 3 5 6 4 6 5 5 10 16 17 19 17 14 15 18 19 19 19 18
6 6 6 5 4 5 5 5 4 4 4 3 3 5 4 3 4 4 3 3 3 5 8 2 4 4 6 8 9 6 5 10 12 14 18 19 20 21 20 20 18 16 17
6 6 6 5 4 4 4 4 4 3 4 5 5 4 6 5 4 4 4 4 4 4 9 6 3 4 4 6 8 7 5 5 5 15 21 21 21 21 23 21 19 16 16
6 6 5 4 3 3 2 2 4 3 3 5 6 6 7 5 6 5 4 6 4 5 4 12 7 6 5 7 5 4 6 7 10 16 21 21 20 21 20 22 21 17 16
6 5 4 3 1 2 2 3 4 3 4 5 6 6 7 7 7 6 6 4 4 6 5 6 9 5 3 4 5 4 6 6 7 15 18 22 22 20 20 23 22 23 21
5 4 2 1 2 3 4 5 5 4 5 5 6 6 7 8 9 8 7 6 5 4 5 6 7 7 4 6 4 5 5 6 8 9 13 15 19 20 21 19 17 15 18
3 2 1 3 4 4 3 5 5 6 5 6 7 7 8 9 17 15 9 6 6 5 5 6 6 7 7 7 8 6 8 7 6 5 7 6 4 7 8 16 16 19 20
2 1 3 4 6 4 9 11 10 5 6 6 7 8 7 12 12 19 18 17 11 5 3 3 4 8 10 8 7 8 8 6 6 3 3 10 4 9 9 7 18 25 26
1 3 5 5 7 7 14 15 15 6 6 7 7 7 7 8 13 10 16 19 13 15 14 5 7 8 10 8 8 9 7 5 7 7 4 9 5 8 8 11 20 24 26
2 4 6 7 6 8 16 17 18 9 7 8 7 8 7 10 11 12 9 7 7 7 7 5 6 10 8 6 6 7 9 7 5 5 5 7 3 8 7 8 23 24 24
4 5 6 7 7 9 16 16 15 9 7 9 8 7 7 9 14 20 9 7 7 7 8 14 17 19 19 20 17 8 5 2 7 3 2 3 3 5 7 11 9 11 16
5 5 7 7 9 9 16 20 18 9 7 9 7 8 15 14 19 20 10 6 6 7 6 8 8 9 10 8 15 6 4 6 5 4 2 2 5 6 8 4 4 8 5
Wind_Direction
71 69 61 56 40 28 29 21 22 20 15 20 17 41 28 53 142 111 85 92 87 66 52 39 26 22 19 12 12 16 3 6 3 1 6 16 7 8 4 8 6 4 1
87 81 71 48 33 29 21 31 25 27 18 23 18 7 26 40 92 133 132 69 81 64 40 30 19 14 11 6 357 2 9 0 358 356 354 4 11 10 6 3 1 360 355
72 83 86 56 22 20 32 29 17 20 24 10 10 356 14 18 53 115 147 185 141 85 40 18 7 5 358 353 358 353 353 358 353 349 346 348 353 4 12 13 14 5 356
76 75 84 60 21 34 38 39 30 10 16 15 342 344 332 40 24 30 53 76 154 80 347 336 351 354 352 338 340 348 344 346 344 345 343 343 343 345 345 356 356 353 355
76 81 75 60 51 48 39 25 18 40 18 345 333 341 334 318 48 45 34 34 81 102 75 320 325 328 333 333 327 332 333 332 333 335 339 341 337 339 340 332 337 347 345
82 76 74 57 60 44 26 31 35 15 38 328 336 348 323 247 69 336 346 354 306 253 263 301 312 312 321 321 320 330 331 327 323 326 332 338 338 332 326 344 352 339 330
87 88 82 63 51 70 48 27 13 32 3 349 5 354 356 16 49 320 299 342 344 329 294 293 312 299 314 326 323 321 328 323 312 310 323 327 329 330 322 324 337 328 325
99 95 88 79 59 62 43 37 35 18 354 17 81 66 4 338 356 8 23 33 343 337 346 345 325 319 324 309 306 324 334 321 313 305 313 320 322 327 322 316 320 327 330
79 93 86 86 76 88 57 51 46 58 20 325 30 117 32 301 330 320 328 350 11 356 331 328 336 330 315 311 319 306 312 305 297 298 304 307 312 317 316 315 316 323 322
80 75 83 85 85 92 63 17 48 73 89 15 339 27 67 167 245 323 324 334 4 346 333 335 330 313 311 305 300 295 315 292 295 299 300 295 297 306 311 323 319 318 318
101 89 88 75 75 76 78 60 31 39 49 73 37 340 341 321 69 213 289 314 316 300 309 322 313 325 321 297 296 286 293 309 309 314 309 302 298 301 313 320 318 319 312
78 85 83 90 70 63 45 42 39 37 30 43 24 359 43 342 308 272 277 278 286 308 298 306 316 330 331 335 350 345 332 315 300 310 314 306 301 303 306 312 312 314 311
96 100 93 83 65 57 41 42 34 27 35 28 4 322 321 277 258 264 261 288 270 281 300 308 295 320 308 340 340 347 334 330 325 316 310 309 312 313 311 307 305 307 307
131 119 96 87 70 56 48 37 25 8 32 24 5 347 313 311 309 260 266 309 315 286 268 269 294 289 312 310 310 320 314 312 318 319 314 310 308 304 302 300 299 303 299
118 95 91 87 69 53 53 35 34 18 18 11 347 351 318 309 320 313 295 275 275 311 304 280 294 309 303 286 285 296 302 300 312 316 315 321 325 322 320 303 295 294 295
98 101 87 74 63 55 40 42 22 1 18 352 346 340 327 300 316 315 308 299 279 289 297 310 281 282 294 310 307 311 310 308 319 331 324 319 315 312 309 303 288 282 289
113 102 98 90 77 59 30 31 0 7 4 345 328 326 309 305 296 306 307 299 289 289 298 310 291 284 285 289 294 307 321 309 296 308 307 304 303 303 305 302 290 282 282
102 103 97 87 72 50 28 355 329 335 343 327 313 316 299 311 304 295 284 286 279 286 289 306 302 305 288 294 268 280 292 313 313 310 305 302 298 301 314 311 308 284 277
103 98 98 84 20 331 314 302 294 265 302 299 294 299 298 306 301 294 281 274 272 293 283 287 300 296 290 287 294 289 291 294 291 294 306 308 302 297 297 307 307 297 281
106 106 96 21 315 302 280 296 286 269 283 285 294 292 291 290 283 281 285 271 275 277 274 283 293 305 285 289 265 294 309 306 298 299 295 293 299 300 302 303 305 312 318
96 90 3 323 308 292 289 272 264 267 271 279 281 281 280 276 287 291 290 275 274 270 279 280 285 296 297 300 297 289 288 288 287 263 277 292 307 303 298 302 302 306 301
45 317 300 289 299 293 274 286 291 266 263 258 264 273 280 291 292 294 296 296 288 272 260 255 289 295 294 292 289 285 289 293 298 255 328 299 282 295 299 285 291 298 297
293 307 301 292 282 275 285 288 283 272 251 252 257 265 280 289 295 291 290 290 286 285 285 276 284 280 287 285 290 294 283 259 272 286 293 295 301 292 301 293 294 292 292
288 291 285 278 271 279 285 283 280 273 261 250 251 257 259 278 281 285 274 266 266 262 263 268 261 281 268 271 253 273 275 277 276 266 246 276 280 289 297 301 297 300 308
271 263 264 277 272 270 277 289 294 290 281 270 261 257 254 271 274 287 285 278 280 268 272 278 286 289 293 302 306 304 290 252 293 273 276 270 295 298 305 291 283 297 325
256 260 260 248 264 289 300 299 296 288 274 274 267 253 263 276 287 295 286 271 273 268 266 277 281 282 286 284 304 291 267 287 280 281 253 325 312 310 304 275 296 301 294